Volver al catálogo

SL-16 R/B

ActivoLEO
NORAD 19650·ROCKET BODY·🇷🇺 Russia

Lanzado Nov 23, 1988 desde Baikonur Cosmodrome

Loading…

Próximos Pases (próximas 24 horas)

TLE

ActualizadoSource: Space-Track

Época: Sep 14, 2026, 13:39 UTC

1 19650U 88102B   26257.56937030  .00000294  00000-0  17230-3 0  9996
2 19650  70.9979 114.0698 0012117  81.6881 278.5616 14.16172984953631

Sigue SL-16 R/B en tiempo real con AllMySat

Download on the App Store